Weather History for Glenwood, MN

Change the Weather History Date:

Tuesday, August 20, 2013

  Actual Average Record
Temperature  
Mean Temperature 78 °F -  
Max Temperature 91 °F 78 °F 93 °F (1955)
Min Temperature 66 °F 56 °F 36 °F (1950)
Cooling Degree Days 14    
Growing Degree Days 28 (Base 50)    
Moisture  
Dew Point 70 °F    
Average Humidity 81    
Maximum Humidity 100    
Minimum Humidity 49    
Precipitation  
Precipitation 0.00 in - - ()
Sea Level Pressure  
Sea Level Pressure 29.87 in    
Wind  
Wind Speed 7 mph (South)    
Max Wind Speed 13 mph    
Max Gust Speed 17 mph    
Visibility 7 miles    
Events Fog    
Averages and records for this station are not official NWS values.
T = Trace of Precipitation, MM = Missing Value Source: NWS Daily Summary

Daily Weather History Graph

Daily Weather History Graph

Search for Another Location

Airport:

Trip Planner

Search our weather history database for the weather conditions in past years. The results will help you decide how hot, cold, wet, or windy it might be!

Date:

Astronomy

Aug. 20, 2013 Rise Set
Actual Time 6:28 AM CDT 8:20 PM CDT
Civil Twilight 5:56 AM CDT 8:51 PM CDT
Nautical Twilight 5:17 AM CDT 9:30 PM CDT
Astronomical Twilight 4:34 AM CDT 10:13 PM CDT
Moon 7:48 PM CDT (8/20) 6:00 AM CDT (8/20)
Length of Visible Light 14h 55m
Length of Day
13h 52m
Full, 100% of the Moon is Illuminated
Aug 20
Full
Aug 20
Full
Aug 28
Last Quarter
Sep 5
New
Sep 12
First Quarter

Hourly Weather History & Observations

Time (CDT) Temp. Heat Index Dew Point Humidity Pressure Visibility Wind Dir Wind Speed Gust Speed Precip Events Conditions
12:13 AM 71.6 °F - 69.8 °F 94% 29.89 in 7.0 mi South 5.8 mph - N/A   Clear
12:33 AM 71.6 °F - 69.8 °F 94% 29.89 in 7.0 mi SSE 5.8 mph - N/A   Clear
12:54 AM 69.8 °F - 68.0 °F 94% 29.89 in 5.0 mi South 5.8 mph - N/A   Clear
1:13 AM 69.8 °F - 68.0 °F 94% 29.89 in 5.0 mi South 5.8 mph - N/A   Clear
1:33 AM 69.8 °F - 69.8 °F 100% 29.88 in 5.0 mi South 6.9 mph - N/A   Clear
1:53 AM 69.8 °F - 69.8 °F 100% 29.88 in 5.0 mi South 6.9 mph - N/A   Clear
2:13 AM 69.8 °F - 68.0 °F 94% 29.88 in 4.0 mi South 6.9 mph - N/A   Clear
2:34 AM 69.8 °F - 68.0 °F 94% 29.87 in 4.0 mi South 6.9 mph - N/A   Clear
2:53 AM 69.8 °F - 68.0 °F 94% 29.87 in 4.0 mi South 5.8 mph - N/A   Clear
3:13 AM 69.8 °F - 68.0 °F 94% 29.87 in 4.0 mi South 4.6 mph - N/A   Clear
3:34 AM 69.8 °F - 68.0 °F 94% 29.86 in 3.0 mi South 6.9 mph - N/A   Clear
3:53 AM 69.8 °F - 68.0 °F 94% 29.87 in 3.0 mi South 6.9 mph - N/A   Clear
4:13 AM 68.0 °F - 66.2 °F 94% 29.87 in 3.0 mi South 4.6 mph - N/A   Clear
4:33 AM 66.2 °F - 66.2 °F 100% 29.87 in 2.0 mi Calm Calm - N/A   Clear
4:53 AM 66.2 °F - 66.2 °F 100% 29.87 in 2.0 mi South 4.6 mph - N/A   Clear
5:13 AM 66.2 °F - 66.2 °F 100% 29.87 in 3.0 mi South 5.8 mph - N/A   Clear
5:33 AM 66.2 °F - 66.2 °F 100% 29.88 in 2.0 mi Calm Calm - N/A   Clear
5:53 AM 66.2 °F - 66.2 °F 100% 29.88 in 1.0 mi SSE 3.5 mph - N/A   Clear
6:14 AM 66.2 °F - 66.2 °F 100% 29.89 in 0.2 mi Calm Calm - N/A Fog Fog
6:33 AM 66.2 °F - 66.2 °F 100% 29.89 in 0.2 mi SSE 3.5 mph - N/A Fog Fog
6:53 AM 66.2 °F - 64.4 °F 94% 29.90 in 0.2 mi SSE 3.5 mph - N/A Fog Fog
7:13 AM 66.2 °F - 66.2 °F 100% 29.90 in 0.5 mi SSE 4.6 mph - N/A Fog Fog
7:33 AM 66.2 °F - 66.2 °F 100% 29.89 in 1.0 mi SE 3.5 mph - N/A   Clear
7:53 AM 68.0 °F - 68.0 °F 100% 29.89 in 1.2 mi SSE 4.6 mph - N/A   Clear
8:13 AM 69.8 °F - 69.8 °F 100% 29.89 in 1.8 mi SSE 4.6 mph - N/A   Clear
8:33 AM 69.8 °F - 69.8 °F 100% 29.89 in 2.5 mi SSE 5.8 mph - N/A   Scattered Clouds
8:54 AM 71.6 °F - 71.6 °F 100% 29.89 in 4.0 mi SSE 6.9 mph - N/A   Scattered Clouds
9:13 AM 73.4 °F - 69.8 °F 88% 29.89 in 5.0 mi SSE 6.9 mph - N/A   Scattered Clouds
9:33 AM 75.2 °F - 69.8 °F 83% 29.89 in 7.0 mi SSE 8.1 mph - N/A   Clear
9:53 AM 77.0 °F - 71.6 °F 83% 29.89 in 7.0 mi SE 6.9 mph - N/A   Clear
10:13 AM 78.8 °F - 71.6 °F 78% 29.89 in 7.0 mi South 6.9 mph - N/A   Clear
10:33 AM 80.6 °F 84.6 °F 71.6 °F 74% 29.89 in 10.0 mi SSE 8.1 mph - N/A   Clear
10:53 AM 82.4 °F 87.2 °F 71.6 °F 70% 29.90 in 10.0 mi South 6.9 mph - N/A   Clear
11:13 AM 82.4 °F 87.2 °F 71.6 °F 70% 29.90 in 10.0 mi South 8.1 mph - N/A   Clear
11:33 AM 82.4 °F 87.2 °F 71.6 °F 70% 29.90 in 10.0 mi South 6.9 mph - N/A   Clear
11:53 AM 84.2 °F 89.6 °F 71.6 °F 66% 29.89 in 10.0 mi South 8.1 mph - N/A   Clear
12:14 PM 86.0 °F 91.8 °F 71.6 °F 62% 29.89 in 10.0 mi South 9.2 mph - N/A   Clear
12:33 PM 86.0 °F 91.8 °F 71.6 °F 62% 29.89 in 10.0 mi South 9.2 mph - N/A   Clear
12:53 PM 87.8 °F 93.8 °F 71.6 °F 58% 29.89 in 10.0 mi South 11.5 mph - N/A   Clear
1:13 PM 87.8 °F 93.8 °F 71.6 °F 58% 29.88 in 10.0 mi SSW 10.4 mph - N/A   Clear
1:33 PM 87.8 °F 93.8 °F 71.6 °F 58% 29.88 in 10.0 mi South 10.4 mph - N/A   Clear
1:53 PM 89.6 °F 96.2 °F 71.6 °F 55% 29.88 in 10.0 mi SSW 10.4 mph - N/A   Clear
2:13 PM 89.6 °F 96.2 °F 71.6 °F 55% 29.88 in 10.0 mi South 9.2 mph 17.3 mph N/A   Clear
2:33 PM 89.6 °F 96.2 °F 71.6 °F 55% 29.88 in 10.0 mi SSW 10.4 mph - N/A   Clear
2:53 PM 89.6 °F 94.7 °F 69.8 °F 52% 29.88 in 10.0 mi SSW 10.4 mph 16.1 mph N/A   Clear
3:13 PM 91.4 °F 96.8 °F 69.8 °F 49% 29.87 in 10.0 mi South 9.2 mph - N/A   Clear
3:33 PM 89.6 °F 94.7 °F 69.8 °F 52% 29.87 in 10.0 mi South 9.2 mph - N/A   Clear
3:54 PM 91.4 °F 96.8 °F 69.8 °F 49% 29.87 in 10.0 mi SSW 8.1 mph - N/A   Clear
4:13 PM 89.6 °F 94.7 °F 69.8 °F 52% 29.86 in 10.0 mi SSW 8.1 mph - N/A   Clear
4:33 PM 89.6 °F 94.7 °F 69.8 °F 52% 29.86 in 10.0 mi SSW 9.2 mph - N/A   Clear
4:53 PM 89.6 °F 96.2 °F 71.6 °F 55% 29.86 in 10.0 mi South 11.5 mph - N/A   Clear
5:13 PM 89.6 °F 94.7 °F 69.8 °F 52% 29.86 in 10.0 mi South 10.4 mph - N/A   Clear
5:33 PM 87.8 °F 93.8 °F 71.6 °F 58% 29.86 in 10.0 mi South 12.7 mph - N/A   Clear
5:53 PM 87.8 °F 93.8 °F 71.6 °F 58% 29.85 in 10.0 mi South 11.5 mph - N/A   Clear
6:13 PM 87.8 °F 93.8 °F 71.6 °F 58% 29.85 in 10.0 mi SSE 12.7 mph - N/A   Clear
6:34 PM 86.0 °F 91.8 °F 71.6 °F 62% 29.85 in 10.0 mi South 10.4 mph - N/A   Clear
6:53 PM 86.0 °F 93.4 °F 73.4 °F 66% 29.85 in 10.0 mi South 11.5 mph 17.3 mph N/A   Clear
7:13 PM 84.2 °F 90.9 °F 73.4 °F 70% 29.85 in 10.0 mi South 9.2 mph - N/A   Clear
7:34 PM 82.4 °F 88.2 °F 73.4 °F 74% 29.85 in 10.0 mi South 8.1 mph - N/A   Clear
7:53 PM 80.6 °F 85.4 °F 73.4 °F 79% 29.85 in 10.0 mi SSE 5.8 mph - N/A   Clear
8:13 PM 78.8 °F - 73.4 °F 83% 29.85 in 7.0 mi SSE 5.8 mph - N/A   Clear
8:33 PM 78.8 °F - 73.4 °F 83% 29.85 in 10.0 mi SSE 5.8 mph - N/A   Clear
8:53 PM 77.0 °F - 73.4 °F 89% 29.86 in 10.0 mi SSE 5.8 mph - N/A   Clear
9:13 PM 77.0 °F - 73.4 °F 89% 29.86 in 10.0 mi SSE 6.9 mph - N/A   Clear
9:33 PM 77.0 °F - 73.4 °F 89% 29.87 in 10.0 mi SSE 6.9 mph - N/A   Clear
9:53 PM 75.2 °F - 73.4 °F 94% 29.87 in 7.0 mi SSE 6.9 mph - N/A   Clear
10:13 PM 75.2 °F - 73.4 °F 94% 29.87 in 7.0 mi SSE 5.8 mph - N/A   Clear
10:33 PM 75.2 °F - 73.4 °F 94% 29.87 in 7.0 mi SSE 5.8 mph - N/A   Clear
10:53 PM 75.2 °F - 73.4 °F 94% 29.86 in 7.0 mi South 6.9 mph - N/A   Clear
11:13 PM 75.2 °F - 73.4 °F 94% 29.86 in 7.0 mi South 4.6 mph - N/A   Clear
11:33 PM 73.4 °F - 71.6 °F 94% 29.85 in 5.0 mi South 6.9 mph - N/A   Clear
11:53 PM 73.4 °F - 71.6 °F 94% 29.84 in 5.0 mi South 6.9 mph - N/A   Clear